Regional Weather Roundup
Issued by NWS Grand Forks, ND

Home | Current Version | Previous Version | Graphics & Text | Print | Product List | Glossary On
Versions: 1 2 3 4 5 6 7 8 9 10 11 12 13 14 15 16 17 18 19 20 21 22 23 24 25 26 27 28 29 30 31 32 33 34 35 36 37 38 39 40 41 42 43 44 45 46 47 48 49 50
805
ASUS43 KFGF 122310
RWRFGF
PRAIRIE TO PINES  WEATHER ROUNDUP
NATIONAL WEATHER SERVICE EASTERN NORTH DAKOTA/GRAND FORKS ND
500 PM CST FRI FEB 12 2016

 **SATELLITE DATA USED TO AUGMENT SKY COVER AT AUTOMATED STATIONS**
 *****  WEATHER ACROSS EASTERN NORTH DAKOTA  *****

CITY           SKY/WX    TMP DP  RH WIND       PRES   REMARKS
GRAND FORKS    PTCLDY     2  -9  60 NW13      30.67F WCI -15
GRAND FRKS AFB CLEAR     -2 -12  62 NW8       30.66F WCI -16
DEVILS LAKE    CLOUDY    -6 -12  75 NW5       30.63R WCI -17
FARGO          CLEAR      1 -10  60 N14       30.66S WCI -17
WAHPETON ARPT  CLEAR      1  -8  66 NW12G18   30.65S WCI -15
$$

 ***** WEATHER ACROSS CENTRAL AND WESTERN NORTH DAKOTA  *****

CITY           SKY/WX    TMP DP  RH WIND       PRES   REMARKS
BISMARCK       CLEAR     12  -2  53 E9        30.57F WCI   0
MINOT          CLEAR      8  -7  50 E6        30.56F WCI  -2
JAMESTOWN      CLOUDY     0 -10  63 N10       30.61R WCI -16
MINOT AFB      PTCLDY     7  -6  55 CALM      30.55F
GARRISON         N/A      8  -2  63 SE7       30.52F WCI  -3
WILLISTON      PTCLDY    14   2  58 E9        30.47S WCI   2
DICKINSON      CLOUDY    11   0  61 SE12      30.41S WCI  -3
HETTINGER      CLOUDY    13   1  59 SE13      30.43S WCI  -2
$$

 *****  OTHER AIRPORT OBSERVATIONS IN OUR AREA  *****

CITY           SKY/WX    TMP DP  RH WIND       PRES   REMARKS
WALHALLA       FAIR       0 -11  60 NW12      30.67F WCI -18
GRAFTON AIRPOR FAIR       0 -11  60 N10       30.69F WCI -17
VALLEY CITY AR FAIR      -2 -11  65 N10       30.64S WCI -19
CANDO          NOT AVBL
CAVALIER APRT  FAIR       0 -11  60 N10       30.67F WCI -17
GWINNER        FAIR       1  -8  66 N8        30.64R WCI -12
SHEYENNE NWR     N/A     -1 -13  56 N7        29.95  WCI -14
ROLLA          FAIR      -2 N/A N/A CALM      30.58R
 ***** THE ABOVE OBSERVATIONS ARE NON NWS ARE NOT QUALITY
       CONTROLLED AND MAY MIS-REPORT RAIN FOR SNOW...
$$

  *****  WEATHER ACROSS NORTHERN MINNESOTA  *****

CITY           SKY/WX    TMP DP  RH WIND       PRES   REMARKS
FLAG ISLAND    CLEAR     -6 -17  59 NW16      30.56R WCI -28
WARROAD        PTCLDY    -4 -17  54 NW13      30.59R WCI -23
ROSEAU         MOCLDY    -6 -15  65 W10       30.61R WCI -23
HALLOCK        CLEAR     -4 -15  59 NW10      30.68R WCI -21
THF RVR FALLS  CLEAR     -6 -22  45 NW17      30.62S WCI -28
BAUDETTE       CLEAR     -4 -18  51 NW9       30.53R WCI -20
WASKISH        CLEAR     -2 -15  55 W10       30.54R WCI -19
CROOKSTON      CLEAR     -2  -9  71 N13       30.67F WCI -21
STEPHEN NDAWN    N/A     -4 -11  71 N12         N/A  WCI -22
GREENBUSH NDAW   N/A     -8 -15  71 NW9         N/A  WCI -25
$$
  *****  WEATHER ACROSS CENTRAL AND WEST MINNESOTA  *****

CITY           SKY/WX    TMP DP  RH WIND       PRES   REMARKS
FOSSTON          N/A     -6 -15  65 NW10      30.60S WCI -23
BEMIDJI        CLEAR     -4 -15  59 NW14      30.53S WCI -23
PARK RAPIDS    CLEAR     -1 -13  56 W16       30.52R WCI -21
ELBOW LAKE     FAIR       1  -9  63 NW14      30.60R WCI -18
WADENA         CLEAR      0 -11  60 NW12      30.54S WCI -18
DETROIT LAKES  CLEAR     -4  -9  77 NW15      30.58F WCI -25
MOORHEAD       CLEAR      0  -8  71 N14       30.66S WCI -19
FERGUS FALLS   CLEAR      0  -9  65 N12G18    30.65R WCI -18
MORRIS MN      CLEAR      3  -6  66 NW17      30.59R WCI -17
STAPLES        CLEAR      1 -15  46 NW16      30.53R WCI -18
$$
  *****  WEATHER ELSEWHERE ACROSS MINNESOTA  *****

CITY           SKY/WX    TMP DP  RH WIND       PRES   REMARKS
DULUTH         PTCLDY     0 -17  44 NW16G23   30.38R WCI -20
INTRNTL FALLS  CLEAR     -4 -18  51 NW9G20    30.49R WCI -20
ELY            CLEAR     -2 -17  50 NW10G16   30.38R WCI -19
CLOQUET        CLEAR      1 -18  39 NW20      30.42R WCI -20
WHEATON        CLOUDY     1  -6  71 NW15      30.66S WCI -18
BRAINERD       CLEAR      4 -15  41 NW16      30.51R WCI -15
HIBBING        CLEAR     -3 -17  51 NW18G26   30.44R WCI -25
ALEXANDRIA     CLEAR      2 -12  52 NW14G20   30.55R WCI -16
SAINT CLOUD    CLEAR      6 -10  47 NW15      30.52R WCI -12
MINNEAPOLIS    CLEAR      9 -11  40 NW16      30.51R WCI  -8
$$

  *****  WEATHER ACROSS SOUTH DAKOTA  *****

CITY           SKY/WX    TMP DP  RH WIND       PRES   REMARKS
SIOUX FALLS    CLOUDY     8  -4  58 N12       30.57R WCI  -7
BROOKINGS      CLOUDY     5  -6  60 N13       30.55R WCI -12
WATERTOWN      CLOUDY     2  -9  60 N13       30.55R WCI -15
HURON          CLOUDY     9  -1  64 N12       30.62R WCI  -6
SISSETON         N/A      0  -9  65 N15       30.63S WCI -19
ABERDEEN       CLOUDY     5  -7  57 N12       30.64R WCI -11
MITCHELL       CLOUDY    11   2  67 N12       30.61R WCI  -3
PIERRE         CLOUDY    20  10  65 E10       30.52R WCI   9
MOBRIDGE       CLOUDY    16   5  62 NE7       30.51S WCI   6
RAPID CITY     FOG       25  23  92 SE13      30.35R VSB 1   WCI  14
$$

  *****  SOME WEATHER IN NEARBY STATES *****

CITY           SKY/WX    TMP DP  RH WIND       PRES   REMARKS
GLASGOW MT     LGT SNOW  17  10  74 E24       30.29F WCI  -1
GREAT FALLS MT SUNNY     58  34  40 SW17      30.03F
CHEYENNE WY    SUNNY     49  30  48 S15       30.23R
SCOTTSBLUFF NE CLOUDY    36  31  82 SE18      30.29R
OMAHA NE       PTCLDY    19   7  59 N17       30.59R WCI   4
DES MOINES IA  PTCLDY    15   0  51 NW15      30.52R WCI   0
DAVENPORT IA   CLEAR     16   1  51 NW18G35   30.37R WCI   0
CHICAGO IL     PTCLDY    19  -3  38 NW26G35   30.22R WCI   1
EAU CLAIRE WI  CLEAR      7 -14  37 NW12G21   30.43R WCI  -8
LA CROSSE WI   CLEAR     10  -7  46 NW18G29   30.42R WCI  -8
$$

  *****  SOME NATIONAL WEATHER *****

CITY           SKY/WX    TMP DP  RH WIND       PRES   REMARKS
LA GUARDIA NY  CLOUDY    25   0  33 SW12G18   30.02F WCI  14
RALEIGH NC     CLOUDY    31  21  66 CALM      30.03S
ATLANTA GA     PTCLDY    58  32  37 NW10      30.06R
NEW ORLEANS LA PTCLDY    74  51  44 W13       30.19R
OKLAHOMA CITY  SUNNY     57  32  38 NE13      30.35R
ALBUQUERQUE NM SUNNY     66  19  16 CALM      30.29F
SALT LAKE CITY CLOUDY    34  27  75 N5        30.35F HAZE
LOS ANGELES CA MOSUNNY   71  48  43 W10       30.03F
BOISE ID       PTSUNNY   48  33  56 CALM      30.24F
SEATTLE WA     MOSUNNY   56  45  66 S10       30.14S
$$

*** WEATHER ACROSS MANITOBA...SASKATCHEWAN AND ONTARIO ***
                ***ONTARIO***

CITY           SKY/WX    TMP DP  RH WIND       PRES   REMARKS
GERALDTON      PTCLDY   -13 -22  64 NW10      30.19R WCI -32
THUNDER BAY    PTCLDY    -2 -17  50 NW10G20   30.36R WCI -19
SIOUX LOOKOUT  PTCLDY    -9 -18  64 NW17      30.40R WCI -33
TORONTO        FLURRIES  19  12  73 W12G21    29.84R WCI   7
BIG TROUT LK   PTCLDY   -15 -24  64 NW12G18   30.33R WCI -36
PICKLE LAKE    CRYSTALS -11 -22  58 NW9G20    30.29R WCI -29
DRYDEN         CLEAR     -8 -17  65 W15       30.42R WCI -29
KENORA         CLEAR     -8 -18  59 NW10      30.50R WCI -26
$$
                *** MANITOBA***

CITY           SKY/WX    TMP DP  RH WIND       PRES   REMARKS
BRANDON        PTCLDY    -4 -13  65 NW7       30.62S WCI -18
DAUPHIN        CLEAR     -2 -18  46 SW2       30.65F
ISLAND LAKE    CLEAR    -11 -18  70 W10       30.50R WCI -30
PILOT MOUND      N/A     -8 -17  65 NW5         N/A  WCI -19
THE PAS        PTCLDY    -6 -20  49 NW6       30.63F WCI -18
THOMPSON       CLEAR     -8 -17  65 W9        30.55F WCI -25
WINNIPEG       PTCLDY    -8 -18  59 NW13      30.68S WCI -28
LYNN LAKE      CLEAR     -9 -18  64 W5        30.53F WCI -21
CHURCHILL      CRYSTALS -17 -24  70 NW20G28   30.47R BLWGSNOWWCI -44
GILLAM         CLEAR    -11 -20  64 W13G18    30.47S WCI -32
$$
                ***SASKATCHEWAN***

CITY           SKY/WX    TMP DP  RH WIND       PRES   REMARKS
ESTEVAN        MOCLDY    12  -6  44 SE9       30.49F WCI   0
KINDERSLEY     CLOUDY    14   5  67 SE23      30.20F WCI  -5
LLOYDMINSTER   CLOUDY     5  -2  72 SE20      30.22F WCI -15
PRINCE ALBERT  PTCLDY    -8 -18  59 E7        30.51F WCI -22
REGINA         MOCLDY     9  -4  56 SE15      30.44F WCI  -8
YORKTON        CLEAR    -11 -17  77 E3        30.56F
N. BATTLEFORD  MOCLDY     5  -2  72 E20       30.37F WCI -15
LA RONGE       PTCLDY   -11 -20  64 NE8       30.52F WCI -28
SASKATOON      MOCLDY     5  -2  72 SE15      30.44F WCI -13
SWIFT CURRENT  CLOUDY    14   7  73 SE21      30.21F WCI  -4
$$
NOTE: THESE ARE AUTOMATED STATIONS WITH LIMITED QUALITY CONTROL
      "FAIR" INDICATES FEW OR NO CLOUDS BELOW 12,000 FEET WITH NO
      SIGNIFICANT WEATHER AND/OR OBSTRUCTIONS TO VISIBILITY.
      SKY/WX - SKY CONDITION AND SIGNIFICANT WEATHER.
      TMP - AIR TEMPERATURE.    DP   - DEWPOINT TEMPERATURE.
      RH  - RELATIVE HUMIDITY.  PRES - PRESSURE.
      HX  - HEAT INDEX.         WCI  - WIND CHILL INDEX.
$




USA.gov is the U.S. government's official web portal to all federal, state and local government web resources and services.